NOAA 16 DEB, 41520

Orbit data source: Space-Track

NOAA 16 DEB, 41520 is space debris in SSO originally from a launch on Thu, 21 Sep 2000 UTC launched from the Air Force Western Test Range (AFWTR). Debris objects in space refer to the collection of defunct objects orbiting the Earth. Examples of debris include non-operational satellites, rocket bodies, and fragments generated from explosions, collisions, or faulty payload assembly.

Loading next visibility...
Identifier
41520, 2000-055MU
Orbit
SSO
Country
Flag of USUS
Related business
Manufacturer
Unknown
Mission
Spacecraft
Bus & Motor
Unknown
Mass
Unknown
Launch date (UTC)
2000-09-21 (25 years ago)
Launch vehicle
Unknown
Launch site
Air Force Western Test Range (AFWTR)
Object type
Payload
Rocket body
Debris
Shape & HBR
Unknown shape, 0.1 m
Radar Cross Section
Small (<0.1 m²)

Expand to show TLE details & history
Last TLE update: 17 hours ago

TLE from 17 hours ago
0 NOAA 16 DEB
1 41520U 00055MU  25299.79214559  .00033723  00000-0  67785-2 0  9994
2 41520  98.8777  67.4309 0027093 317.9002  42.0115 14.61264201492456
Epoch: 2025-10-26T19:00Z
TLE epoch observation values (Epoch: 2025-10-26T19:00:41.378Z)
Latitude
-0.00005°
Longitude
106.85524°
Altitude
677.854 km
Speed
7.525 km/s
True Right ascension
04h 29m 43s
True Declination
0° 00' 00"
Sunlit
Object was in full shadow at epoch
Visualization orbit readout
Latitude
Unknown
Longitude
Unknown
Altitude
Unknown
Speed
Unknown
Apparent Right ascension
Unknown
Apparent Declination
Unknown
Sunlit
N/A
Visualization observer readout
Local Sidereal Time
07:02:46
Azimuth
Unknown
Elevation
Unknown
Doppler factor
Unknown
Orbital elements
Apogee altitude
705.346 km
Perigee altitude
667.067 km
Semi-major axis
7,064.344 km
Eccentricity
0.00271
Inclination
98.8777°
RAAN
67.4309°
Arg. of periapsis
317.9002°
True anomaly
42.21981°
Mean anomaly
42.0115°
Eccentric anomaly
42.1156°
Mean motion
3.6554 °/min
Orbital period
98.48 mins
BSTAR
0.0067785
Loading maneuver chart data...
Computing Atmospheric mass density...
Loading historical data...
Loading historical data...
Loading historical data...
Loading historical data...
Loading historical data...
Loading historical data...
Loading historical data...

Documentation

Showing up to 5 results
|